Weather History for Grand Forks AFB, ND

Change the Weather History Date:

Wednesday, November 21, 2012

  Actual Average Record
Temperature  
Mean Temperature 36 °F -  
Max Temperature 45 °F 30 °F 60 °F (2006)
Min Temperature 28 °F 14 °F -7 °F (1996)
Degree Days  
Heating Degree Days 28    
Moisture  
Dew Point 30 °F    
Average Humidity 91    
Maximum Humidity 100    
Minimum Humidity 68    
Precipitation  
Precipitation 0.00 in - - ()
Sea Level Pressure  
Sea Level Pressure 29.69 in    
Wind  
Wind Speed 4 mph (NNW)    
Max Wind Speed 8 mph    
Max Gust Speed -    
Visibility 5 miles    
Events Fog    
Averages and records for this station are not official NWS values.
T = Trace of Precipitation, MM = Missing Value Source: NWS Daily Summary

Daily Weather History Graph

Daily Weather History Graph

Search for Another Location

Airport:

Trip Planner

Search our weather history database for the weather conditions in past years. The results will help you decide how hot, cold, wet, or windy it might be!

Date:

Astronomy

Nov. 21, 2012 Rise Set
Actual Time 7:45 AM CST 4:45 PM CST
Civil Twilight 7:10 AM CST 5:19 PM CST
Nautical Twilight 6:32 AM CST 5:58 PM CST
Astronomical Twilight 5:55 AM CST 6:35 PM CST
Moon 1:27 PM CST (11/21) 12:38 AM CST (11/21)
Length of Visible Light 10h 09m
Length of Day
8h 59m
First Quarter, 62% of the Moon is Illuminated
Nov 21
First Quarter
Nov 28
Full
Dec 6
Last Quarter
Dec 13
New
Dec 19
First Quarter

Hourly Weather History & Observations

Time (CST) Temp. Windchill Dew Point Humidity Pressure Visibility Wind Dir Wind Speed Gust Speed Precip Events Conditions
12:55 AM 33.4 °F 28.1 °F 30.2 °F 88% 29.89 in 10.0 mi SSW 5.8 mph - N/A   Clear
1:55 AM 32.7 °F 25.7 °F 29.7 °F 88% 29.88 in 10.0 mi SSW 8.1 mph - N/A   Clear
2:55 AM 34.0 °F - 30.7 °F 88% 29.88 in 10.0 mi Calm Calm - N/A   Clear
3:55 AM 29.5 °F - 27.3 °F 92% 29.89 in 10.0 mi Calm Calm - N/A   Clear
4:55 AM 30.9 °F - 28.9 °F 92% 29.90 in 10.0 mi Calm Calm - N/A   Clear
5:55 AM 30.2 °F - 28.4 °F 93% 29.88 in 10.0 mi Calm Calm - N/A   Clear
6:55 AM 28.9 °F 22.8 °F 27.3 °F 94% 29.89 in 10.0 mi NW 5.8 mph - N/A   Clear
7:55 AM 28.8 °F 25.0 °F 27.0 °F 93% 29.90 in 10.0 mi West 3.5 mph - N/A   Clear
8:55 AM 29.7 °F - 27.7 °F 92% 29.90 in 10.0 mi Calm Calm - N/A   Clear
9:55 AM 37.6 °F - 34.0 °F 87% 29.90 in 10.0 mi Calm Calm - N/A   Clear
10:55 AM 38.5 °F 33.4 °F 34.5 °F 86% 29.88 in 10.0 mi North 6.9 mph - N/A   Clear
11:55 AM 42.3 °F 39.4 °F 34.3 °F 74% 29.85 in 10.0 mi East 4.6 mph - N/A   Clear
12:55 PM 43.2 °F - 34.9 °F 73% 29.81 in 10.0 mi Calm Calm - N/A   Clear
1:55 PM 45.1 °F 42.8 °F 35.2 °F 68% 29.78 in 10.0 mi East 4.6 mph - N/A   Clear
2:55 PM 45.3 °F 41.6 °F 36.3 °F 71% 29.75 in 10.0 mi ESE 6.9 mph - N/A   Clear
3:55 PM 44.1 °F 42.5 °F 37.2 °F 77% 29.73 in 10.0 mi ESE 3.5 mph - N/A   Clear
4:55 PM 39.0 °F - 34.9 °F 85% 29.71 in 10.0 mi Calm Calm - N/A   Clear
5:22 PM 39.2 °F 37.0 °F 35.6 °F 87% 29.68 in 8.0 mi ENE 3.5 mph - N/A   Clear
5:29 PM 37.4 °F 33.8 °F 35.6 °F 93% 29.64 in 10.0 mi NNE 4.6 mph - N/A   Clear
5:55 PM 33.3 °F 27.9 °F 31.5 °F 93% 29.68 in 5.0 mi North 5.8 mph - N/A   Clear
6:00 PM 32.0 °F 26.4 °F 32.0 °F 100% 29.63 in 10.0 mi NNW 5.8 mph - N/A   Clear
6:55 PM 32.2 °F 25.0 °F 30.9 °F 95% 29.67 in 5.0 mi NNW 8.1 mph - N/A   Clear
6:58 PM 33.8 °F 28.6 °F 32.0 °F 93% 29.66 in 6.0 mi North 5.8 mph - N/A   Clear
7:11 PM 33.8 °F 27.7 °F 32.0 °F 93% 29.66 in 4.0 mi North 6.9 mph - N/A   Clear
7:25 PM 32.0 °F 27.5 °F 30.2 °F 93% 29.65 in 2.5 mi North 4.6 mph - N/A   Clear
7:33 PM 32.0 °F 25.6 °F 30.2 °F 93% 29.65 in 1.8 mi North 6.9 mph - N/A   Clear
7:35 PM 32.0 °F 25.6 °F 30.2 °F 93% 29.65 in 2.0 mi NNW 6.9 mph - N/A   Clear
7:37 PM 32.0 °F 24.8 °F 30.2 °F 93% 29.65 in 2.0 mi NNW 8.1 mph - N/A   Clear
7:41 PM 32.0 °F 25.6 °F 30.2 °F 93% 29.65 in 3.0 mi NNW 6.9 mph - N/A   Clear
7:55 PM 32.5 °F 25.5 °F 31.6 °F 96% 29.65 in 5.0 mi North 8.1 mph - N/A   Clear
8:35 PM 32.0 °F - 30.2 °F 93% 29.62 in 2.5 mi Calm Calm - N/A   Clear
8:41 PM 30.2 °F 26.7 °F 30.2 °F 100% 29.62 in 1.0 mi North 3.5 mph - N/A   Clear
8:42 PM 30.2 °F 26.7 °F 28.4 °F 93% 29.62 in 1.0 mi NNW 3.5 mph - N/A   Clear
8:49 PM 30.2 °F 24.3 °F 28.4 °F 93% 29.62 in 0.8 mi NNW 5.8 mph - N/A   Clear
8:51 PM 30.2 °F 24.3 °F 28.4 °F 93% 29.61 in 1.0 mi NNW 5.8 mph - N/A   Clear
8:54 PM 30.2 °F 26.7 °F 28.4 °F 93% 29.61 in 2.0 mi North 3.5 mph - N/A   Clear
8:56 PM 30.2 °F - 28.4 °F 93% 29.61 in 3.0 mi Calm Calm - N/A   Clear
9:08 PM 30.2 °F 26.7 °F 28.4 °F 93% 29.61 in 2.5 mi NNW 3.5 mph - N/A   Clear
9:14 PM 30.2 °F 26.7 °F 28.4 °F 93% 29.61 in 1.8 mi NNW 3.5 mph - N/A   Clear
9:17 PM 28.4 °F 24.6 °F 28.4 °F 100% 29.61 in 1.2 mi NNW 3.5 mph - N/A   Clear
9:18 PM 28.4 °F 23.3 °F 28.4 °F 100% 29.61 in 1.0 mi NNW 4.6 mph - N/A   Clear
9:20 PM 28.4 °F 23.3 °F 26.6 °F 93% 29.60 in 0.8 mi NNW 4.6 mph - N/A   Clear
9:23 PM 28.4 °F 24.6 °F 26.6 °F 93% 29.61 in 0.5 mi NW 3.5 mph - N/A Fog Light Freezing Fog
9:27 PM 28.4 °F 24.6 °F 26.6 °F 93% 29.60 in 0.5 mi NW 3.5 mph - N/A Fog Light Freezing Fog
9:29 PM 28.4 °F 23.3 °F 26.6 °F 93% 29.60 in 0.5 mi NW 4.6 mph - N/A Fog Light Freezing Fog
9:30 PM 28.4 °F 23.3 °F 26.6 °F 93% 29.60 in 0.8 mi NW 4.6 mph - N/A   Clear
9:35 PM 28.4 °F 22.2 °F 26.6 °F 93% 29.60 in 1.5 mi NW 5.8 mph - N/A   Clear
9:37 PM 28.4 °F 21.2 °F 26.6 °F 93% 29.60 in 2.0 mi NW 6.9 mph - N/A   Clear
9:40 PM 28.4 °F 22.2 °F 26.6 °F 93% 29.60 in 3.0 mi NW 5.8 mph - N/A   Clear
9:53 PM 28.4 °F 21.2 °F 28.4 °F 100% 29.61 in 5.0 mi NW 6.9 mph - N/A   Clear
9:55 PM 29.1 °F 22.1 °F 28.2 °F 96% 29.61 in 5.0 mi NNW 6.9 mph - N/A   Clear
10:55 PM 29.8 °F 23.0 °F 28.8 °F 96% 29.59 in 6.0 mi NNW 6.9 mph - N/A   Clear
11:02 PM 30.2 °F 25.4 °F 28.4 °F 93% 29.58 in 6.0 mi NNW 4.6 mph - N/A   Clear
11:13 PM 30.2 °F 24.3 °F 28.4 °F 93% 29.58 in 6.0 mi NNW 5.8 mph - N/A   Clear
11:44 PM 30.2 °F 23.4 °F 28.4 °F 93% 29.58 in 7.0 mi NNW 6.9 mph - N/A   Clear
11:55 PM 31.1 °F 23.7 °F 29.8 °F 95% 29.57 in 7.0 mi North 8.1 mph - N/A   Clear